Dewpoint
44 40 37 38 43 48 51 46 44 42 40 38 35 34 37 37 37 39 43 51 57 61 65 65 65 65 65 65 64 65 65 65 65 64 64 64 64 64 63 62 62 61 62
35 33 33 37 44 48 50 46 42 40 37 35 32 30 29 28 29 32 36 42 48 56 61 64 64 66 65 65 65 65 65 65 65 65 64 64 64 64 63 63 62 62 62
28 32 32 34 41 45 47 46 39 38 36 34 31 30 28 27 28 28 32 36 41 46 54 58 61 63 65 66 65 65 65 65 64 64 64 64 64 63 63 63 63 63 62
26 27 32 35 40 43 44 45 43 39 37 35 32 30 27 26 26 29 32 32 36 36 44 50 54 58 60 62 64 64 64 64 64 64 64 64 64 64 64 64 63 63 64
27 25 29 34 37 39 40 42 41 39 35 31 30 29 29 27 27 27 29 31 34 34 35 42 45 51 54 57 60 62 62 61 61 61 61 61 61 62 62 62 64 64 64
28 27 27 32 34 34 35 33 33 34 34 30 28 27 26 26 26 27 28 28 31 33 33 35 37 43 48 51 54 56 59 59 59 59 58 58 58 59 59 59 59 60 60
28 26 26 28 30 30 29 30 29 28 28 27 26 24 23 22 21 21 22 24 25 26 28 31 34 38 42 45 48 50 54 57 58 57 56 56 56 57 57 56 56 56 57
28 27 26 26 28 27 27 25 27 23 24 27 23 22 19 19 21 19 18 16 20 23 23 26 30 33 37 39 43 45 47 51 56 54 53 53 53 53 54 54 54 54 54
27 27 27 26 27 27 26 27 25 23 20 23 25 25 17 21 20 20 20 18 19 22 22 24 28 31 34 37 40 42 44 45 47 48 51 49 48 48 49 51 51 51 50
27 27 27 26 27 28 25 25 26 26 25 20 23 23 24 23 20 16 19 19 19 20 22 23 24 27 31 35 37 39 41 43 43 46 47 46 45 45 44 44 45 47 47
27 28 28 27 26 27 25 25 25 24 24 22 23 22 22 22 20 20 17 18 20 22 23 24 24 25 28 32 34 37 39 40 41 41 42 40 41 41 42 42 42 42 41
25 25 26 27 26 26 26 26 26 25 24 23 23 21 22 20 19 20 18 18 18 19 21 24 24 26 26 25 28 32 33 36 39 38 38 39 38 38 39 40 39 39 39
22 23 23 24 24 25 25 25 24 23 23 23 22 21 22 22 22 20 20 18 18 19 20 22 23 25 24 25 24 25 29 30 31 34 36 36 35 35 36 37 37 37 37
22 22 22 23 22 23 23 23 23 22 22 22 21 21 21 22 22 22 22 19 18 17 18 21 22 22 26 26 24 21 22 26 28 30 32 33 33 33 34 35 35 35 35
21 20 20 20 20 21 21 20 20 19 19 20 20 20 20 21 23 23 22 23 23 16 15 19 21 22 22 23 26 21 21 24 25 28 29 30 30 32 33 33 33 33 33
20 19 19 19 18 18 18 19 19 18 18 18 18 18 19 19 20 21 21 21 21 20 18 19 20 22 20 17 22 21 20 22 23 27 29 29 30 30 31 32 33 32 32
19 18 17 17 16 16 17 17 16 16 16 17 18 18 17 18 18 19 20 20 19 20 20 19 20 20 20 20 20 19 18 18 20 24 28 29 29 30 32 31 33 32 32
17 15 15 15 15 15 15 15 15 16 16 16 16 16 14 16 17 17 18 18 17 18 18 19 20 21 20 19 18 19 16 14 18 20 25 26 27 27 29 32 32 32 33
18 16 15 14 14 15 15 16 16 15 16 16 15 15 15 15 15 16 16 17 17 17 17 16 16 18 18 18 17 17 17 18 17 18 20 21 24 28 29 28 28 31 30
19 17 16 17 18 17 16 15 15 15 15 16 17 16 15 14 15 15 16 15 15 16 15 15 15 15 15 18 19 18 17 19 19 20 19 22 23 25 23 24 24 25 25
23 22 22 21 19 18 15 15 15 15 15 16 16 16 17 18 20 19 17 17 17 16 16 15 15 16 18 18 18 19 20 21 21 20 20 20 20 19 20 21 23 24 24
28 26 24 21 19 14 18 18 19 21 21 21 17 15 18 20 21 21 23 24 27 27 26 23 21 20 19 20 21 21 22 21 20 21 19 18 18 17 20 21 21 22 24
28 26 25 24 20 21 21 20 20 23 22 21 19 18 17 17 20 19 20 20 20 23 25 27 26 25 24 23 22 22 21 20 19 19 18 17 19 18 21 19 20 21 23
26 25 24 24 23 22 23 21 23 24 23 21 21 21 20 19 19 20 19 19 19 18 18 17 18 22 22 22 22 21 21 20 20 20 19 18 20 20 21 21 20 20 21
26 25 24 24 24 23 23 24 24 24 22 21 21 20 19 18 17 19 20 22 22 21 20 20 21 22 23 23 23 24 23 23 22 22 21 20 23 22 20 18 18 17 18
26 25 23 24 23 22 21 22 22 22 23 21 18 17 18 20 19 20 22 23 23 23 20 19 18 18 18 20 20 22 23 23 23 23 23 21 23 22 19 19 18 17 18
Wind_Speed
15 13 11 10 9 8 12 12 11 12 14 15 16 16 17 16 16 12 12 28 33 34 27 22 11 7 9 12 12 12 11 12 12 12 11 9 9 9 8 7 8 8 8
11 13 12 11 10 9 11 13 11 11 12 13 15 15 15 14 13 15 13 15 26 32 32 33 29 25 8 12 16 18 16 14 11 10 8 6 6 7 7 7 5 4 4
12 11 13 11 10 10 11 16 13 12 12 12 14 13 13 14 15 15 14 15 15 24 31 33 33 31 31 17 23 24 23 22 14 13 11 8 6 5 5 4 4 5 5
13 11 15 13 11 11 8 9 12 11 11 10 11 11 12 13 13 13 13 13 12 12 17 31 32 31 30 30 30 26 26 26 25 26 25 26 26 24 18 10 7 7 8
11 11 13 14 12 12 9 9 10 9 10 10 11 11 11 11 11 10 13 13 12 14 14 19 24 30 31 28 28 27 25 25 25 26 27 27 26 26 27 29 23 15 18
10 10 13 15 13 13 11 9 12 10 10 10 11 12 10 10 9 10 10 11 12 14 12 14 13 17 27 27 25 23 22 22 23 24 25 25 25 25 25 26 26 26 26
10 9 11 15 13 12 12 14 11 15 11 8 6 10 11 10 11 10 9 10 11 11 12 12 10 8 13 21 23 21 19 18 19 21 23 24 23 23 22 22 23 22 21
11 6 10 13 12 13 13 11 8 7 5 5 4 4 3 3 8 9 9 9 10 10 11 11 11 12 12 11 17 21 17 14 17 19 19 20 21 21 19 19 20 18 18
8 8 9 12 14 11 10 8 9 4 8 3 5 3 4 2 7 5 8 8 8 8 9 10 12 13 13 14 15 15 17 13 11 12 14 16 17 16 15 15 16 15 16
11 8 9 9 12 13 12 11 7 6 5 6 3 4 2 4 2 4 4 6 7 8 8 8 9 10 11 11 15 18 17 14 12 11 13 15 14 13 12 12 11 12 14
11 9 10 10 9 10 13 12 9 9 4 6 2 3 4 5 4 3 5 5 6 6 7 7 8 8 11 13 12 15 17 15 12 11 11 12 13 12 12 11 12 11 10
10 10 11 10 11 10 10 11 10 9 7 6 6 5 1 2 1 3 5 8 8 4 5 6 7 7 8 9 11 14 15 15 13 11 10 10 11 11 11 11 11 11 10
8 9 11 10 11 10 9 9 11 10 7 7 5 6 6 7 7 5 5 5 4 5 4 5 5 5 6 8 8 8 12 12 11 10 10 9 9 10 9 9 9 9 9
12 10 11 11 12 10 11 10 10 11 9 8 8 7 8 8 6 6 3 6 5 3 2 6 3 4 5 7 5 5 6 11 10 9 8 8 8 9 9 8 8 8 9
12 12 12 13 12 11 12 10 11 11 11 10 8 10 9 7 7 7 6 6 2 4 3 3 3 2 3 3 6 6 6 9 8 8 7 7 7 7 8 8 7 7 7
14 13 13 12 12 12 11 11 10 10 10 8 8 9 8 7 8 7 7 6 7 6 4 2 2 5 1 1 4 5 6 6 5 7 7 6 6 7 7 7 7 5 5
14 13 13 12 12 12 11 11 11 10 10 10 9 9 9 7 7 7 6 7 7 6 9 2 4 3 2 1 1 3 3 5 3 4 7 7 7 7 8 6 6 5 4
14 14 13 13 12 12 11 11 11 10 10 10 9 9 8 7 8 7 7 8 8 7 4 8 5 3 1 2 3 5 4 4 4 1 6 6 6 7 6 6 6 7 7
14 13 13 13 13 12 12 11 11 11 10 9 8 8 7 7 7 6 6 6 6 6 6 3 4 1 1 1 4 4 4 5 6 2 6 6 5 5 4 6 6 5 7
14 13 12 13 12 11 10 10 10 11 11 9 8 7 7 7 6 6 6 6 5 5 4 3 2 1 0 3 3 5 6 3 5 6 5 5 6 6 8 7 7 7 8
13 13 12 11 11 10 9 10 9 10 10 9 8 7 7 7 7 5 4 4 3 2 2 1 1 1 2 2 4 4 5 8 9 6 5 8 4 6 8 7 9 9 8
12 12 11 10 10 7 11 11 10 9 9 8 7 6 6 5 4 3 3 2 1 1 2 3 4 4 4 5 4 5 6 7 5 3 3 9 11 9 9 8 5 6 10
12 11 10 9 8 9 11 11 11 9 8 6 6 5 4 4 1 2 2 1 3 4 5 4 6 6 8 7 7 7 8 8 9 9 8 9 10 11 9 9 9 11 12
11 11 10 8 8 6 11 11 9 7 6 6 4 3 2 1 2 0 3 4 4 5 6 7 8 9 10 9 9 10 10 10 11 11 11 13 9 12 10 8 12 12 13
10 10 9 9 8 4 9 9 7 6 4 3 2 2 2 2 2 3 5 6 7 8 9 10 12 14 15 16 16 11 12 12 13 13 10 10 9 12 11 10 9 13 6
10 9 9 8 9 7 9 8 7 4 5 4 5 5 5 6 6 7 8 8 9 9 9 9 9 10 12 12 15 14 11 15 14 14 8 11 9 10 8 8 6 3 6
Wind_Direction
122 120 116 111 111 117 112 98 93 90 83 77 69 70 65 55 53 43 41 36 38 33 43 57 57 85 112 109 102 94 93 97 104 102 102 98 91 81 69 69 106 100 97
109 122 115 110 106 109 115 107 98 91 85 83 77 71 69 61 56 51 41 35 39 38 39 45 51 49 83 103 97 82 71 68 75 81 76 84 88 89 81 70 89 86 94
111 104 107 104 98 100 106 112 98 93 91 84 80 72 64 58 52 51 43 40 28 38 41 43 47 51 46 80 90 78 71 62 75 66 65 68 65 44 51 62 57 43 45
122 127 111 104 109 105 92 110 116 102 95 90 85 73 70 65 58 52 55 48 35 34 35 44 43 46 50 52 61 71 69 65 66 70 70 67 65 65 56 48 52 61 60
124 122 117 114 101 102 94 103 107 103 100 94 95 85 78 72 64 58 58 53 44 44 39 38 39 45 46 48 52 59 67 71 72 71 68 68 64 63 63 60 56 71 71
96 111 122 115 111 106 104 96 100 82 95 99 92 80 79 80 75 65 57 54 46 43 45 43 37 36 46 44 47 51 57 65 68 72 72 67 63 61 62 62 60 59 61
107 120 126 118 115 105 114 107 103 103 92 84 80 60 57 55 60 60 59 57 51 50 42 39 45 47 57 48 42 43 49 55 71 69 68 67 64 60 56 59 58 52 53
104 127 133 120 114 117 117 122 135 122 79 13 105 115 118 104 65 52 57 58 60 54 49 45 42 43 49 56 49 41 40 44 61 67 66 63 59 58 53 54 57 58 53
94 120 125 129 124 119 115 111 120 100 140 71 46 104 146 143 133 77 56 56 62 62 53 50 46 45 51 47 41 31 29 42 50 60 64 59 50 47 43 47 50 46 46
87 108 109 117 122 119 122 118 86 86 89 138 84 45 26 33 186 138 97 78 67 65 63 59 59 53 52 62 53 36 32 37 48 62 54 50 37 33 35 35 33 38 39
74 74 103 106 112 116 116 112 111 94 91 122 100 109 40 30 356 111 144 137 93 75 61 55 58 58 57 42 53 41 37 38 38 45 44 40 31 26 29 33 35 35 34
88 82 82 89 95 104 111 108 100 92 83 106 109 96 94 33 107 70 99 150 127 94 86 73 67 65 67 79 55 47 42 37 33 33 44 38 29 27 25 26 31 31 30
98 91 93 99 96 96 96 101 101 95 95 88 72 77 55 51 26 27 109 122 129 140 110 75 77 72 74 79 61 40 43 36 33 30 28 29 25 22 21 21 20 20 21
102 95 99 99 98 103 102 94 95 100 100 96 88 85 82 63 51 33 39 131 104 124 143 118 84 79 61 60 57 20 48 28 23 21 21 15 11 9 9 8 8 6 7
114 112 106 103 105 105 103 102 102 96 93 90 86 77 79 76 64 57 41 22 347 163 145 147 133 83 88 69 33 16 21 12 16 11 8 3 355 351 349 352 350 353 360
112 110 113 113 109 105 104 101 96 101 102 96 94 95 89 80 74 68 63 50 25 1 110 91 80 139 99 53 44 349 15 337 18 7 7 359 349 340 336 336 338 342 359
121 121 117 117 115 115 115 111 106 106 103 99 92 88 81 76 74 70 64 59 51 18 111 77 90 108 152 326 355 339 340 325 341 18 353 346 338 339 338 332 355 358 1
129 127 124 119 115 110 107 107 108 105 101 96 93 90 85 83 73 63 62 59 58 34 51 128 127 149 246 61 338 314 327 312 312 352 327 323 324 323 315 321 330 331 348
120 121 122 117 114 110 108 107 108 107 105 102 99 99 97 95 85 81 77 72 58 57 37 86 112 57 55 347 328 292 289 313 293 279 293 289 287 308 330 319 316 331 321
121 119 116 113 112 109 106 112 113 114 109 98 91 91 88 84 89 84 75 66 69 70 62 67 77 90 280 98 304 301 321 274 299 308 306 267 304 290 289 288 289 290 299
114 115 115 113 116 117 124 124 122 120 119 115 107 105 86 82 73 60 75 67 59 74 70 46 283 237 269 264 295 352 307 301 307 276 311 295 246 290 292 274 268 271 290
109 109 107 115 115 118 132 130 119 106 104 112 120 115 116 110 100 80 62 69 100 40 330 317 305 294 289 292 297 305 304 302 315 89 320 308 320 290 286 285 269 292 290
122 117 120 123 129 140 147 143 139 133 133 136 136 139 138 131 179 130 147 259 269 264 265 259 271 284 299 290 282 280 283 279 279 287 301 287 293 287 269 276 265 280 287
125 128 127 132 128 153 156 154 144 137 147 154 149 158 174 202 185 348 295 293 291 288 270 265 262 257 253 264 282 285 288 290 290 280 261 265 270 280 278 269 280 281 278
134 133 137 138 137 123 151 147 148 149 150 158 165 219 237 257 256 250 267 261 271 276 281 267 262 269 274 273 267 255 260 261 268 265 261 257 257 270 287 296 290 286 279
145 142 141 140 152 138 166 169 168 185 168 212 219 225 235 247 258 256 251 257 259 268 278 283 283 283 276 259 262 257 266 268 272 279 272 265 255 266 285 267 289 306 280